Location: �clusier
(49.9361°N, 2.7869°E)
Time: 05:56:25
(UTC+00:00)

Cosmos 2016 Rocket - Pass Details

Date: 28 October 2021
Orbit: 947 x 1000 km, 83.0° (Epoch: 05 December)

Event Time Altitude Azimuth Distance (km) Brightness Sun altitude
Rises 20:52:56 0° 231° (SW) 3,647 7.2 -41.1°
Reaches altitude 10° 20:56:01 10° 246° (WSW) 2,696 6.6 -41.5°
Maximum altitude 21:00:45 23° 297° (WNW) 1,930 6.0 -42.2°
Drops below altitude 10° 21:05:30 10° 348° (NNW) 2,688 6.7 -42.8°
Sets 21:08:36 0° 3° (N) 3,633 7.4 -43.2°
